Temp
71 79 77 75 60 58 55 64 77 78 81 83 89 86 80 83 79 66 86 86 84 80 79 81 80 80 80 79 79 79 79 79 79 79 79 79 79 79 79 79 79 80 80 81 81 80 81 80 80
75 82 78 70 55 48 56 72 73 81 83 86 89 87 84 78 88 87 84 86 84 80 79 79 80 80 80 79 79 78 79 79 79 78 79 79 78 79 79 79 79 80 80 81 81 81 80 80 80
77 81 64 60 54 53 57 73 79 81 88 86 84 91 87 82 85 84 89 87 83 81 80 79 80 80 80 79 79 78 78 79 79 79 79 79 78 78 78 79 79 80 81 81 81 80 80 79 79
75 70 68 54 53 63 69 76 81 84 85 86 87 84 89 93 91 91 90 88 84 83 81 79 79 79 80 79 79 78 79 79 79 79 79 78 78 78 78 79 79 80 80 81 80 79 79 79 79
71 64 53 50 57 67 75 81 84 83 83 84 86 81 81 90 94 94 90 89 85 83 79 79 79 79 79 79 79 79 79 78 78 79 79 78 78 78 78 79 79 80 80 80 79 79 78 78 79
61 63 47 48 59 69 76 84 85 83 83 84 83 83 79 91 91 91 93 89 89 80 79 79 79 79 79 79 79 78 78 78 78 78 78 78 78 78 78 78 79 79 79 79 79 78 78 78 78
58 53 49 54 60 66 74 84 84 85 84 81 82 78 79 85 92 94 92 92 86 84 79 78 78 79 79 78 78 78 77 77 77 77 77 77 77 77 78 78 78 78 78 78 78 78 78 77 78
65 58 53 59 61 62 76 77 73 78 79 88 90 76 70 84 93 91 92 91 86 83 80 77 76 76 77 76 78 78 77 77 77 77 77 77 77 77 77 77 77 78 78 78 77 77 77 77 77
70 55 53 57 61 67 76 71 79 83 81 83 85 84 86 91 91 86 88 81 83 84 80 79 77 76 76 76 79 77 78 77 77 77 77 76 74 75 76 76 77 77 77 77 77 77 77 77 77
63 53 59 66 70 68 74 71 75 76 76 77 80 89 90 90 85 83 83 82 80 79 81 79 79 78 78 82 78 75 77 75 75 75 74 73 73 73 78 77 78 77 77 77 77 77 77 77 72
63 60 65 70 76 77 75 73 77 72 67 74 76 80 85 84 82 83 84 80 85 77 76 74 74 79 81 79 75 75 75 75 75 75 74 73 75 73 75 73 74 72 76 73 74 73 72 72 71
60 69 71 73 77 76 71 75 73 73 72 81 82 82 82 80 79 81 82 82 75 70 66 69 72 72 73 79 78 79 77 76 75 76 75 73 72 72 73 73 72 71 72 70 70 70 71 70 73
64 68 73 76 75 72 75 73 72 72 80 81 84 84 80 80 76 78 82 74 71 65 66 68 69 68 71 73 76 75 80 79 79 78 77 76 74 74 75 74 74 74 73 72 71 71 73 72 73
69 70 72 73 72 72 70 71 72 75 80 81 81 79 80 79 80 75 78 72 69 67 65 67 69 69 70 72 74 79 80 81 77 79 79 79 78 75 75 75 75 75 77 75 75 76 74 75 75
71 65 70 73 70 71 73 66 69 76 80 78 79 79 80 79 80 79 80 72 71 69 67 67 68 70 72 73 74 74 80 81 82 80 79 80 78 75 75 75 75 75 75 75 76 75 77 74 76
63 64 56 64 70 74 69 60 71 77 77 74 79 80 81 79 80 80 80 73 72 70 70 71 77 74 73 71 74 77 79 78 77 73 74 77 77 72 71 70 70 71 71 71 71 70 69 68 68
56 50 53 61 69 68 68 63 72 78 76 73 75 76 79 77 78 79 80 76 73 72 70 72 74 71 72 73 72 77 77 76 75 72 71 73 73 73 71 70 69 70 68 67 67 69 67 69 66
49 52 57 57 66 70 66 65 72 76 75 75 73 74 76 76 77 80 79 80 77 75 74 74 72 71 71 73 74 75 76 76 75 73 74 74 72 72 70 68 67 68 67 66 66 62 62 65 67
60 58 57 62 70 66 65 66 71 73 71 71 72 72 72 74 79 78 80 81 78 77 76 72 74 74 73 72 70 71 70 71 72 73 75 74 72 71 66 63 64 64 65 64 63 62 61 61 62
60 57 57 63 69 66 62 63 69 73 70 71 70 71 72 72 75 77 74 76 75 74 73 74 72 72 72 72 70 72 72 72 72 73 73 72 73 71 66 63 63 67 65 63 62 62 60 60 62
59 56 57 57 66 66 62 58 62 70 73 73 74 73 73 71 70 73 72 70 71 70 70 70 68 68 69 71 70 70 71 70 68 68 68 70 73 72 67 67 67 69 65 62 62 61 60 58 60
54 65 64 62 59 48 63 42 54 63 67 71 73 71 72 69 71 70 69 67 68 67 68 67 66 66 67 67 69 68 66 64 65 65 66 66 70 71 70 69 70 66 61 60 60 62 61 58 57
59 67 64 62 54 51 55 45 52 64 64 67 68 68 69 71 69 68 68 68 67 67 65 65 64 64 64 64 65 63 61 62 63 63 64 64 65 67 69 67 66 65 62 61 60 63 60 59 59
70 64 61 59 52 40 50 47 46 57 63 68 71 70 71 69 68 69 69 68 66 66 64 63 63 62 63 63 63 61 61 61 61 61 60 61 61 62 64 66 62 62 62 62 63 65 63 61 63
64 52 41 39 39 37 53 49 51 60 63 69 71 69 67 68 68 67 66 64 64 63 63 64 62 61 62 62 62 61 60 60 59 58 57 57 58 58 59 59 59 58 59 61 61 60 61 62 62
60 53 39 31 33 41 56 46 53 64 65 71 70 67 66 66 67 66 66 66 64 64 63 63 62 61 62 61 61 60 60 59 58 58 57 57 57 57 58 59 59 60 60 60 59 58 59 62 61
57 52 57 46 44 36 44 52 61 66 64 67 65 64 63 64 63 64 64 64 63 62 61 62 61 61 61 61 60 59 60 59 58 58 57 57 57 61 59 59 58 58 59 58 57 56 56 58 58
59 62 48 49 33 29 41 42 45 49 55 64 64 62 65 65 66 64 63 62 61 61 62 62 62 61 61 60 60 60 59 59 58 57 56 56 56 57 57 57 56 56 56 55 53 52 54 54 56
54 55 53 47 41 31 32 38 52 48 50 52 58 63 63 64 63 63 62 63 61 62 61 60 61 61 60 60 59 58 58 58 57 56 56 56 56 56 56 56 55 55 54 54 52 51 52 53 52
61 57 52 37 38 42 39 38 55 54 53 52 54 57 61 64 64 63 62 62 61 59 60 60 59 59 59 60 59 58 58 57 56 56 56 56 54 55 55 55 55 55 55 53 52 51 53 53 54
MSLP
1010.40 1010.27 1010.61 1010.77 1011.23 1010.18 1009.06 1006.62 1004.61 1002.67 1001.42 1000.23 999.80 1000.34 1001.33 1001.69 1002.39 1004.61 1004.98 1005.24 1005.63 1006.63 1007.26 1007.79 1007.77 1008.00 1008.35 1008.88 1009.47 1009.98 1010.42 1010.69 1011.02 1011.32 1011.76 1012.06 1012.17 1012.26 1012.58 1012.80 1013.02 1013.22 1013.43 1013.65 1013.89 1014.18 1014.37 1014.55 1014.69
1010.31 1010.30 1010.27 1010.47 1010.51 1009.85 1008.06 1005.84 1004.02 1001.71 1001.04 999.99 999.43 1000.19 1000.90 1002.46 1002.31 1003.44 1004.08 1005.25 1005.72 1006.56 1007.16 1007.69 1007.96 1008.07 1008.40 1008.84 1009.39 1009.87 1010.33 1010.69 1011.13 1011.50 1011.77 1012.14 1012.47 1012.51 1012.69 1012.86 1013.11 1013.29 1013.40 1013.67 1013.94 1014.09 1014.28 1014.44 1014.69
1010.46 1010.63 1010.91 1010.37 1009.83 1009.08 1007.11 1004.82 1002.61 1002.00 1000.61 1000.17 1000.17 1000.15 1001.00 1002.18 1003.38 1003.72 1003.74 1004.93 1005.89 1006.54 1006.97 1007.58 1008.15 1008.48 1008.76 1009.10 1009.49 1009.97 1010.42 1010.71 1011.09 1011.57 1011.94 1012.15 1012.42 1012.67 1012.81 1013.01 1013.13 1013.43 1013.59 1013.62 1013.85 1014.11 1014.35 1014.48 1014.56
1010.42 1010.47 1010.55 1009.78 1009.27 1007.72 1006.04 1004.13 1002.07 1001.94 1001.33 1000.52 1000.36 1000.81 1001.51 1001.57 1001.81 1002.44 1003.41 1004.99 1005.99 1006.56 1007.00 1007.73 1008.40 1008.99 1009.19 1009.49 1009.86 1010.23 1010.59 1010.96 1011.27 1011.64 1012.07 1012.34 1012.44 1012.66 1012.96 1013.07 1013.25 1013.44 1013.72 1013.89 1013.98 1014.27 1014.45 1014.55 1014.68
1010.46 1010.57 1010.80 1010.03 1008.94 1007.19 1005.48 1003.59 1002.30 1001.92 1001.36 1000.66 1000.67 1000.98 1001.82 1002.21 1002.30 1002.48 1003.69 1004.69 1005.61 1006.69 1007.25 1008.04 1008.62 1009.06 1009.43 1009.80 1010.28 1010.57 1010.86 1011.15 1011.41 1011.76 1012.04 1012.34 1012.69 1012.91 1013.22 1013.44 1013.53 1013.65 1013.71 1013.85 1014.05 1014.15 1014.32 1014.61 1014.75
1010.78 1010.19 1010.65 1010.08 1008.77 1006.66 1004.80 1002.93 1001.72 1001.30 1000.87 1000.64 1000.59 1001.01 1001.84 1001.78 1002.26 1002.74 1003.62 1004.53 1005.21 1006.60 1007.38 1007.99 1008.70 1009.22 1009.63 1009.92 1010.27 1010.68 1011.09 1011.24 1011.54 1011.84 1012.15 1012.41 1012.74 1013.09 1013.29 1013.63 1013.82 1013.93 1014.01 1014.05 1014.08 1014.15 1014.26 1014.48 1014.68
1010.50 1010.59 1010.00 1009.46 1008.22 1006.34 1004.27 1002.45 1001.80 1000.25 1000.22 1000.41 1000.40 1000.92 1001.73 1002.17 1002.18 1002.51 1003.00 1003.98 1005.33 1006.29 1007.44 1008.12 1008.69 1009.15 1009.51 1009.85 1010.07 1010.30 1010.65 1011.00 1011.42 1011.80 1012.16 1012.61 1012.91 1013.17 1013.44 1013.61 1013.97 1014.22 1014.25 1014.23 1014.27 1014.34 1014.44 1014.61 1014.68
1009.48 1010.19 1009.62 1008.72 1007.68 1005.62 1003.12 1002.44 1001.16 1000.69 1000.30 1000.05 1000.24 1001.06 1001.90 1002.23 1002.18 1002.58 1002.93 1003.72 1005.15 1006.04 1006.84 1008.03 1008.76 1009.24 1009.52 1010.03 1010.44 1010.76 1011.03 1011.35 1011.62 1011.99 1012.40 1012.84 1013.38 1013.68 1013.77 1013.89 1013.97 1013.98 1014.10 1014.28 1014.45 1014.60 1014.69 1014.79 1015.00
1008.74 1009.23 1008.62 1007.71 1006.90 1005.20 1003.02 1002.93 1001.19 1000.57 1000.59 1000.83 1000.95 1001.17 1001.87 1002.10 1002.28 1002.71 1003.04 1004.27 1005.33 1006.05 1006.58 1007.28 1008.48 1009.35 1009.82 1010.21 1010.50 1010.92 1011.17 1011.44 1011.61 1011.99 1012.60 1013.07 1013.37 1013.60 1013.71 1013.93 1014.04 1014.01 1014.10 1014.14 1014.39 1014.62 1014.79 1014.92 1014.99
1008.21 1007.85 1006.88 1006.65 1005.72 1004.69 1003.37 1003.03 1002.09 1001.54 1001.41 1001.45 1001.49 1001.42 1001.84 1002.19 1002.59 1003.04 1003.46 1004.09 1005.38 1006.16 1006.75 1007.22 1007.56 1009.02 1009.77 1010.30 1010.99 1011.55 1011.81 1012.02 1012.17 1012.41 1012.58 1013.10 1013.48 1013.66 1013.61 1013.71 1013.92 1014.24 1014.21 1014.36 1014.55 1014.73 1014.88 1014.97 1014.93
1007.36 1006.17 1006.56 1005.67 1004.90 1004.09 1003.64 1002.98 1002.40 1002.35 1002.29 1002.14 1002.24 1002.21 1002.04 1002.56 1003.09 1003.45 1003.67 1004.20 1004.80 1006.18 1007.65 1008.62 1009.13 1009.89 1010.50 1010.23 1010.89 1011.33 1011.77 1012.11 1012.39 1012.38 1012.47 1012.55 1013.06 1013.52 1013.60 1013.70 1013.69 1013.98 1014.29 1014.44 1014.42 1014.62 1014.77 1014.94 1015.03
1006.81 1006.14 1005.82 1005.09 1004.31 1003.89 1003.71 1003.08 1002.78 1002.54 1002.66 1002.14 1002.23 1002.28 1002.27 1002.45 1003.12 1003.65 1003.99 1005.06 1006.38 1007.40 1008.84 1008.42 1009.71 1010.60 1010.83 1010.87 1010.72 1010.86 1011.68 1012.35 1012.59 1012.11 1011.97 1012.24 1012.66 1013.14 1013.27 1013.31 1013.46 1013.65 1013.71 1014.06 1014.36 1014.49 1014.30 1014.16 1014.05
1005.87 1005.52 1004.86 1004.28 1003.80 1003.42 1003.17 1002.98 1002.74 1002.72 1002.30 1002.02 1002.20 1002.27 1002.62 1002.75 1003.18 1003.67 1004.09 1005.61 1006.76 1007.80 1009.20 1008.22 1009.60 1008.89 1009.61 1010.95 1011.01 1010.78 1010.90 1011.46 1011.66 1012.01 1011.55 1011.33 1011.94 1012.59 1012.97 1013.12 1013.11 1013.28 1013.50 1013.69 1013.90 1014.00 1013.91 1013.93 1014.04
1004.86 1004.60 1004.02 1003.59 1003.33 1003.01 1003.14 1002.67 1002.43 1002.46 1002.31 1002.23 1002.34 1002.47 1002.57 1002.78 1003.17 1003.68 1004.65 1006.03 1006.90 1007.87 1008.55 1009.60 1009.96 1008.67 1008.97 1008.95 1009.61 1010.04 1010.35 1011.07 1011.44 1011.33 1011.11 1010.96 1011.20 1011.82 1012.60 1012.76 1013.06 1012.98 1013.19 1013.25 1013.39 1013.45 1013.51 1013.51 1013.50
1004.36 1004.24 1003.56 1003.08 1002.88 1002.64 1002.86 1002.50 1001.94 1001.98 1001.98 1002.08 1002.17 1002.30 1002.44 1002.66 1003.08 1003.61 1004.30 1005.16 1006.21 1007.63 1008.14 1008.22 1009.06 1009.28 1009.45 1008.53 1009.09 1009.87 1009.64 1010.44 1010.68 1010.77 1010.61 1010.73 1010.89 1011.53 1012.34 1012.56 1012.56 1012.52 1012.95 1013.12 1013.00 1012.83 1012.75 1013.25 1013.51
1004.14 1003.93 1003.51 1002.83 1002.45 1002.27 1002.64 1001.77 1001.87 1001.53 1001.60 1001.86 1001.85 1001.96 1002.06 1002.41 1002.78 1003.06 1003.81 1004.50 1005.77 1006.66 1007.48 1008.82 1008.65 1009.56 1008.35 1008.70 1008.87 1009.86 1009.39 1009.56 1009.84 1010.03 1010.22 1010.41 1011.12 1012.49 1012.92 1013.09 1012.97 1012.90 1012.77 1013.43 1014.46 1014.21 1013.77 1012.99 1013.18
1004.05 1003.82 1003.11 1002.61 1001.95 1002.00 1001.83 1001.43 1001.58 1000.95 1001.15 1001.33 1001.50 1001.73 1001.91 1002.21 1002.50 1002.43 1003.15 1004.26 1005.28 1005.66 1006.74 1007.15 1007.88 1008.85 1008.36 1008.54 1008.68 1009.28 1009.59 1009.40 1009.55 1009.32 1009.89 1010.29 1011.28 1011.45 1011.98 1012.20 1012.97 1013.14 1013.03 1013.74 1014.90 1014.89 1014.56 1013.56 1014.32
1003.39 1003.18 1002.93 1002.41 1001.91 1001.51 1001.30 1001.03 1001.01 1000.38 1000.58 1000.43 1001.22 1001.38 1001.56 1001.89 1002.21 1001.91 1002.79 1003.69 1004.61 1004.98 1005.78 1006.42 1007.19 1007.93 1008.31 1008.98 1009.28 1009.26 1009.34 1009.59 1009.27 1009.67 1010.61 1010.36 1011.26 1011.32 1011.50 1012.05 1012.75 1012.45 1012.39 1012.50 1013.21 1014.65 1015.57 1015.63 1015.71
1003.34 1002.87 1002.30 1001.73 1001.10 1000.96 1000.70 1000.56 1000.36 1000.03 1000.30 1000.20 1000.76 1001.20 1001.36 1001.60 1001.57 1001.90 1002.47 1003.34 1004.22 1005.24 1006.07 1006.65 1007.50 1008.03 1008.87 1009.42 1009.48 1009.74 1009.83 1010.00 1010.13 1010.10 1010.09 1010.22 1010.73 1011.42 1012.17 1012.27 1012.74 1012.97 1013.19 1013.49 1014.00 1014.36 1014.84 1015.07 1014.88
1002.71 1002.25 1001.77 1001.22 1000.48 1000.30 1000.42 999.85 999.34 999.74 999.99 1000.01 1000.24 1000.73 1000.97 1001.31 1001.71 1002.26 1002.94 1003.76 1004.47 1005.45 1006.15 1007.00 1007.80 1008.11 1008.24 1008.48 1008.95 1009.17 1009.40 1009.97 1010.11 1010.35 1010.29 1010.32 1010.62 1011.38 1012.22 1012.75 1012.68 1013.36 1013.62 1013.54 1014.28 1013.73 1014.47 1014.40 1013.87
1001.60 1001.48 1001.27 1001.10 1000.41 999.79 1000.09 999.86 999.66 999.47 999.57 999.87 999.84 1000.17 1000.76 1001.46 1002.16 1003.09 1003.97 1004.99 1005.05 1006.21 1006.82 1007.33 1008.39 1008.62 1008.65 1008.70 1008.88 1009.15 1009.46 1010.23 1010.91 1011.09 1011.15 1011.38 1010.99 1010.85 1011.64 1012.08 1012.63 1012.76 1013.12 1013.30 1013.23 1013.55 1013.79 1013.91 1013.40
1000.50 1000.66 1000.68 1000.75 1000.85 1000.82 1000.14 1000.78 1000.25 999.94 999.92 1000.01 1000.61 1000.31 1000.99 1001.94 1003.28 1004.32 1004.98 1005.65 1006.26 1007.28 1007.62 1008.08 1008.49 1008.90 1008.99 1008.91 1009.33 1009.69 1010.22 1010.99 1011.32 1011.36 1011.42 1011.28 1011.20 1011.12 1011.23 1011.45 1011.71 1012.20 1012.71 1012.78 1012.97 1013.41 1013.35 1013.77 1013.96
999.59 999.99 1000.26 1000.62 1001.04 1000.93 1001.02 1001.98 1000.89 1000.36 1000.23 1000.22 1000.55 1000.93 1001.05 1002.39 1003.60 1004.90 1005.82 1006.44 1007.30 1007.62 1008.24 1008.64 1008.95 1009.38 1009.74 1009.79 1010.14 1010.70 1011.20 1011.45 1011.69 1011.69 1011.68 1011.92 1011.89 1011.97 1012.24 1012.32 1012.48 1012.71 1012.92 1013.18 1013.32 1013.24 1013.25 1013.49 1013.85
999.02 999.66 1000.18 1000.78 1001.43 1001.73 1001.97 1002.14 1001.70 1000.89 1000.38 1000.01 1000.26 1001.17 1001.59 1002.82 1003.97 1004.97 1006.31 1006.91 1007.71 1008.20 1008.73 1009.37 1009.62 1010.05 1010.12 1010.26 1010.56 1011.05 1011.52 1011.96 1012.05 1012.20 1012.57 1012.56 1012.51 1012.65 1012.65 1012.55 1012.85 1013.08 1013.23 1013.28 1013.26 1013.12 1013.21 1013.30 1013.09
998.39 999.53 1000.61 1001.38 1001.90 1002.25 1002.37 1002.05 1001.51 1000.67 1000.04 999.73 1000.37 1001.53 1002.63 1003.17 1004.21 1005.30 1006.37 1007.26 1008.01 1008.58 1009.22 1009.58 1010.22 1010.77 1010.85 1010.89 1011.03 1011.23 1011.50 1011.78 1012.20 1012.66 1013.15 1013.28 1013.22 1013.18 1013.27 1013.22 1013.22 1013.31 1013.39 1013.16 1012.87 1012.83 1012.95 1012.95 1012.80
997.60 998.72 999.87 1001.45 1002.47 1003.06 1002.30 1001.18 1000.38 1000.51 1000.18 999.66 1000.89 1002.15 1003.05 1004.32 1005.09 1005.94 1006.84 1007.64 1008.38 1008.99 1009.30 1009.91 1010.55 1011.13 1011.27 1011.41 1011.51 1011.48 1011.43 1011.80 1012.33 1012.69 1013.00 1013.27 1013.47 1013.46 1013.55 1013.45 1013.34 1013.26 1013.23 1013.13 1013.10 1012.91 1012.57 1012.36 1012.21
996.84 997.56 999.33 1001.26 1003.09 1003.75 1003.04 1001.46 1000.31 1000.47 1000.68 1000.97 1002.27 1002.71 1003.57 1004.97 1006.07 1006.59 1007.41 1008.09 1008.75 1009.26 1009.86 1010.34 1010.88 1011.32 1011.42 1011.51 1011.60 1011.76 1011.84 1012.15 1012.49 1012.75 1013.06 1013.35 1013.40 1013.53 1013.54 1013.34 1013.22 1013.33 1013.33 1013.29 1013.15 1013.03 1012.73 1012.46 1012.31
995.78 997.42 999.32 1000.95 1003.23 1004.36 1003.95 1003.73 1003.13 1002.93 1002.49 1001.24 1002.11 1003.15 1004.04 1005.13 1007.04 1007.23 1008.15 1008.81 1009.33 1009.77 1010.25 1010.64 1011.08 1011.49 1011.62 1011.66 1011.77 1012.04 1012.27 1012.45 1012.64 1012.78 1013.06 1013.18 1013.32 1013.38 1013.30 1013.33 1013.30 1013.35 1013.29 1013.23 1013.18 1013.17 1012.94 1012.77 1012.53
995.96 997.03 998.88 1000.78 1002.55 1004.05 1004.82 1004.58 1004.15 1004.53 1004.19 1004.37 1003.52 1003.55 1004.23 1005.40 1006.83 1007.51 1008.61 1009.26 1009.77 1010.08 1010.72 1011.18 1011.43 1011.66 1011.87 1012.05 1012.18 1012.40 1012.62 1012.76 1012.90 1012.99 1012.96 1013.01 1012.99 1013.05 1013.16 1013.20 1013.24 1013.23 1013.07 1012.88 1012.85 1012.76 1012.53 1012.40 1012.28
995.94 996.97 998.68 1000.80 1002.67 1003.54 1004.24 1004.96 1004.64 1004.69 1004.76 1005.71 1005.32 1005.60 1005.52 1005.93 1006.73 1007.79 1008.81 1009.46 1010.52 1011.01 1011.30 1011.65 1011.92 1012.03 1012.15 1012.12 1012.28 1012.49 1012.58 1012.67 1012.80 1012.93 1012.99 1012.89 1012.92 1012.84 1012.83 1012.78 1012.80 1012.77 1012.57 1012.43 1012.43 1012.30 1012.05 1012.02 1011.78
Wind_Speed
4 7 3 3 3 2 6 11 9 20 15 1 7 8 7 10 7 8 7 16 21 15 14 14 18 20 20 19 19 17 16 16 16 16 15 13 13 14 13 13 13 13 14 14 14 13 12 12 10
3 5 1 4 4 2 7 14 17 20 3 5 10 4 6 14 9 6 12 17 18 16 12 12 16 18 19 20 19 18 18 17 17 16 15 14 12 12 12 12 12 12 14 14 14 14 13 12 9
2 4 1 5 4 7 7 15 18 2 5 5 5 5 6 9 13 1 15 19 17 14 12 12 15 16 18 18 19 18 18 18 17 16 16 15 14 12 12 11 12 12 13 14 14 13 12 11 10
2 3 4 0 9 11 16 16 20 14 4 2 5 5 5 4 4 11 23 20 16 14 13 15 15 14 15 16 17 17 17 17 16 16 15 14 14 13 12 12 11 11 12 12 13 12 11 10 8
2 2 3 4 10 12 15 21 21 18 8 7 6 1 9 5 15 13 21 19 18 13 12 11 13 13 14 15 15 15 16 15 16 15 15 15 13 12 11 10 10 10 11 12 12 12 11 10 7
3 4 1 7 14 16 15 20 20 16 8 6 7 7 6 12 14 10 17 19 18 16 13 12 14 13 13 14 15 14 14 15 14 14 14 14 14 13 12 10 10 10 10 10 11 11 11 11 9
6 2 7 9 13 16 15 16 20 21 11 4 3 5 6 6 12 13 11 17 18 17 14 10 10 12 13 13 15 16 15 15 13 12 12 11 12 12 11 11 9 8 8 9 9 10 10 9 10
4 3 8 9 11 16 18 3 2 5 2 2 4 3 4 5 8 8 10 17 18 17 16 13 9 8 8 9 13 13 13 13 13 12 11 10 8 8 8 8 8 9 10 9 9 8 8 8 8
5 6 10 13 12 14 16 6 4 5 6 5 6 6 9 7 3 2 5 7 15 14 16 17 14 8 7 6 10 11 13 12 12 10 9 8 4 5 6 7 9 10 9 9 9 9 9 9 9
8 7 17 7 13 11 11 4 7 4 4 4 5 5 7 6 3 4 6 7 13 15 16 14 17 14 10 8 7 4 6 4 4 5 6 4 4 5 8 8 10 10 10 9 8 8 9 8 4
8 19 8 12 21 18 13 6 5 2 3 3 4 6 5 5 5 7 7 4 9 13 8 10 8 5 5 9 6 3 3 4 4 7 7 6 5 4 5 3 4 4 7 3 5 5 4 5 4
15 17 16 16 17 14 10 6 5 4 5 4 7 5 6 8 8 8 9 9 15 20 15 13 13 9 12 2 5 6 5 4 4 6 9 6 4 4 5 4 5 5 4 6 5 4 6 8 9
17 15 17 17 17 13 10 8 5 8 9 5 5 7 6 7 5 6 8 16 19 19 16 19 12 10 3 4 5 4 7 7 8 7 8 7 6 5 4 5 5 6 5 6 5 6 7 7 8
10 16 18 13 16 11 9 8 5 7 8 6 6 8 8 7 8 5 4 16 18 17 17 13 13 14 16 13 11 8 5 8 5 6 8 10 6 4 4 5 5 5 6 5 6 7 6 7 7
14 17 15 20 9 13 9 11 12 8 8 10 11 10 10 9 9 10 7 18 21 18 19 19 21 19 12 9 7 3 6 6 7 5 5 8 6 5 4 1 2 2 3 6 5 6 4 1 3
9 13 15 9 10 13 7 18 11 11 13 11 15 10 10 10 10 8 7 19 15 17 18 17 15 15 10 8 7 8 4 5 6 6 4 5 2 8 8 6 4 3 5 9 11 4 5 3 1
7 10 12 16 9 6 16 18 11 12 9 11 10 9 9 9 9 8 10 16 16 17 15 17 15 11 11 11 6 6 4 4 2 1 1 6 7 8 6 5 6 1 3 4 2 13 9 8 6
10 13 14 10 11 17 17 16 16 16 11 16 10 9 10 9 11 10 12 17 16 16 15 15 11 10 5 3 4 1 3 2 2 1 2 5 5 7 7 6 6 3 3 4 7 8 7 7 7
13 13 13 11 17 13 16 16 17 12 6 9 9 9 9 10 10 8 14 17 14 12 15 14 13 14 12 8 5 4 4 4 3 4 6 6 6 7 5 3 3 2 5 9 7 4 4 3 3
19 18 17 12 13 12 11 8 11 9 8 9 12 9 8 6 8 7 10 14 14 12 10 16 9 8 4 3 2 3 4 2 3 2 3 3 3 4 4 4 4 5 4 8 5 4 3 3 3
21 18 15 13 15 7 3 5 5 1 3 6 9 8 5 5 11 18 17 14 16 14 13 13 9 8 6 3 3 2 4 4 4 3 3 3 3 2 5 6 5 6 6 6 6 5 6 2 3
19 18 18 16 12 4 7 5 4 3 5 5 4 9 7 10 15 17 16 15 15 12 12 12 11 9 8 8 6 6 4 5 2 3 2 4 4 4 6 6 3 6 3 2 3 2 3 3 5
15 13 16 16 7 3 9 4 7 9 9 9 4 6 9 14 17 18 17 16 13 12 11 9 9 9 8 9 8 6 7 4 3 3 6 6 7 9 7 7 7 5 4 4 5 4 5 5 7
17 13 11 10 4 5 7 5 6 5 12 14 7 8 16 18 18 18 15 15 12 10 9 8 9 7 8 8 8 8 8 6 5 6 5 5 4 4 6 7 7 6 5 3 0 4 5 6 7
16 8 6 4 6 5 7 8 9 6 1 13 11 18 15 17 16 14 13 11 10 10 8 8 9 7 7 8 8 7 7 8 9 7 4 5 4 4 6 6 6 4 4 6 6 3 3 4 5
17 12 6 8 5 7 11 13 13 9 6 4 23 19 17 13 12 12 11 11 9 9 9 9 9 7 7 7 6 7 8 5 5 6 4 4 4 3 5 5 5 5 5 5 5 4 4 7 6
11 12 9 6 4 4 3 6 7 16 15 20 15 17 16 11 7 10 10 11 10 9 10 9 9 7 6 6 7 7 7 7 6 6 4 3 4 3 5 5 5 5 5 5 5 4 6 6 5
10 9 9 8 8 4 4 2 1 10 4 18 20 17 15 16 11 12 10 9 8 9 8 8 7 6 5 7 6 5 6 5 5 5 4 4 3 3 5 5 6 5 4 4 4 3 4 6 7
5 10 5 6 7 7 3 5 7 2 7 9 6 14 18 18 13 12 9 8 8 8 8 7 7 6 6 6 4 5 4 5 4 4 4 4 4 5 5 5 4 4 5 5 5 5 6 6 6
8 11 7 7 3 2 6 3 7 8 7 4 11 12 8 15 14 12 9 8 8 8 8 7 7 7 6 5 4 4 5 5 5 4 4 3 3 3 3 4 5 5 5 6 6 6 7 9 10
Wind_Direction
300 275 208 314 45 144 249 254 262 285 298 75 95 83 86 51 95 135 120 126 124 134 146 151 147 145 142 141 140 139 136 130 128 127 126 125 124 124 125 123 123 128 126 123 121 119 116 111 104
336 318 264 265 148 214 259 255 260 261 249 72 101 123 85 83 87 103 120 133 132 134 143 148 153 149 147 146 144 143 141 137 135 135 135 133 131 130 131 130 130 134 134 131 130 129 128 123 121
311 241 93 164 220 211 236 256 256 27 98 85 53 52 85 111 113 29 123 129 128 136 135 147 154 155 152 148 146 145 144 142 142 144 144 143 141 139 139 138 137 138 140 139 137 135 133 134 141
281 345 314 58 249 240 241 260 268 288 321 95 103 106 72 36 98 138 132 135 135 143 137 147 151 155 150 147 146 146 146 146 146 148 148 148 148 147 147 147 145 145 147 145 141 137 137 141 151
236 275 226 231 249 264 262 253 268 269 232 170 120 1 111 75 118 125 139 141 143 138 134 140 144 147 148 147 147 147 148 149 150 153 153 153 153 153 151 153 151 154 154 152 150 148 147 151 164
291 148 323 227 256 263 264 265 268 268 255 197 139 134 164 153 126 139 143 147 146 133 137 143 143 142 144 147 149 149 152 152 156 157 159 159 159 162 162 162 160 159 161 161 159 159 159 164 177
211 260 216 246 262 275 264 260 264 262 240 153 111 115 146 113 142 154 158 144 137 137 133 135 140 142 144 149 154 155 157 157 158 160 160 163 166 168 170 166 166 168 170 168 168 171 171 178 187
213 192 263 250 248 261 265 285 127 44 72 18 80 96 49 144 143 150 162 142 145 141 140 136 130 139 153 149 151 155 157 158 157 158 158 156 165 172 176 173 177 175 177 178 180 184 188 193 206
244 231 239 243 250 262 282 358 286 81 74 23 26 96 136 105 63 150 166 136 147 144 147 142 140 139 137 139 159 158 160 158 156 155 156 150 149 171 185 190 195 191 189 189 189 192 197 206 216
201 218 229 240 257 263 289 17 321 67 55 359 7 333 98 110 183 242 239 189 155 153 151 151 144 149 147 151 147 127 151 139 145 142 143 153 190 190 197 201 214 205 199 202 207 207 211 217 219
249 233 249 233 246 261 281 332 357 58 169 194 238 262 271 157 207 258 273 222 152 113 87 81 67 87 147 130 152 153 159 168 185 175 174 182 199 207 214 202 193 187 216 216 204 208 212 219 226
243 242 237 253 268 279 281 290 328 305 247 226 223 236 257 253 212 218 271 84 95 97 80 84 69 56 16 9 158 157 163 184 210 195 175 176 200 203 206 183 181 188 196 199 206 216 225 218 210
231 241 237 234 252 259 263 250 205 267 280 292 286 287 290 288 246 259 230 113 110 106 113 110 137 116 73 313 291 213 183 189 199 202 185 179 184 200 211 190 182 195 194 199 213 211 214 221 232
240 235 245 240 235 256 265 242 211 225 244 250 256 245 257 246 261 255 174 126 117 125 130 151 129 180 191 186 204 190 191 202 193 198 199 193 190 191 201 191 187 206 210 198 206 222 225 228 221
240 256 256 238 233 251 251 279 236 220 231 230 229 226 223 231 237 232 186 134 140 141 150 153 165 194 194 172 198 219 163 175 181 192 196 191 181 185 188 153 269 261 205 231 219 235 202 177 285
247 254 254 256 224 236 206 258 254 223 215 229 215 225 211 231 239 206 151 140 153 147 152 165 173 201 175 163 180 228 182 158 158 158 147 109 39 63 35 1 355 349 17 13 351 348 331 358 314
262 240 248 249 243 232 207 239 247 246 226 205 211 190 202 222 235 216 151 147 159 160 164 152 158 182 182 180 200 208 204 159 176 41 57 140 138 131 159 174 254 350 77 83 96 13 335 353 8
219 229 246 253 232 239 250 233 231 241 246 197 187 191 209 198 209 226 152 153 160 157 164 151 156 157 157 196 230 259 199 104 108 142 210 159 138 173 179 198 223 176 119 48 75 70 5 9 9
244 237 229 223 239 226 234 237 204 230 232 166 190 205 212 192 204 151 142 160 154 147 154 153 167 172 179 198 176 169 168 135 172 191 177 165 172 154 171 187 181 47 66 94 106 149 100 235 318
245 245 255 271 247 209 249 237 185 202 199 193 185 201 216 198 166 145 100 90 97 93 101 148 157 153 175 154 139 142 129 150 146 158 135 183 173 183 170 203 177 173 149 123 167 176 170 251 108
231 237 246 246 274 234 221 252 197 237 2 348 172 176 140 152 130 110 95 89 85 76 77 79 84 82 67 50 119 91 72 71 55 44 56 42 60 188 191 212 224 163 156 185 189 194 180 231 237
229 222 239 252 261 216 165 245 268 232 270 285 263 134 122 92 91 95 94 85 86 86 81 78 71 64 42 36 60 87 92 118 118 77 58 33 9 88 79 60 76 121 98 185 213 215 205 113 265
231 232 217 240 246 213 267 91 269 217 228 245 188 175 111 116 105 105 102 95 90 85 80 78 74 70 64 61 74 79 78 69 89 67 54 47 44 75 65 57 53 96 154 194 215 218 206 199 245
220 235 237 222 211 229 225 148 263 222 221 214 193 147 119 107 104 103 100 106 105 97 89 88 83 76 71 71 71 81 87 89 78 48 45 23 31 43 43 52 54 47 40 37 40 220 235 232 243
203 200 226 225 218 208 194 243 211 205 91 204 184 127 115 107 103 104 108 107 110 112 115 102 94 87 77 76 71 69 57 65 75 74 71 44 18 19 17 43 40 44 22 354 346 339 275 258 261
205 191 151 193 174 218 188 231 236 201 74 107 122 115 107 105 115 122 121 115 110 110 107 101 95 89 85 81 77 67 56 57 69 68 52 34 47 38 43 34 26 7 346 337 330 314 310 307 300
211 195 173 120 54 75 298 300 231 163 123 113 116 116 114 116 111 110 106 106 99 90 90 101 95 86 84 79 71 62 54 56 53 45 53 51 43 22 10 2 352 344 347 341 335 319 312 311 304
177 168 183 203 156 163 270 292 41 360 32 151 146 140 139 117 122 95 93 94 92 93 89 88 98 108 97 85 78 75 71 68 63 52 35 37 27 12 10 10 18 13 8 359 349 329 319 316 308
152 179 164 122 137 149 163 237 118 354 24 26 73 133 128 122 122 111 107 114 126 114 105 88 67 76 77 83 88 89 83 77 67 54 27 9 16 26 28 13 349 320 299 293 281 262 264 269 282
185 197 143 139 192 131 140 278 134 127 47 28 46 37 88 123 122 121 136 123 98 100 89 77 54 49 47 39 49 69 75 63 51 34 357 351 29 357 332 316 300 289 277 272 260 255 268 267 272